When you browse on this site, cookies collect data to enhance your experience and personalize the content and advertising you see.
Visit our Privacy Policy to learn more. By continuing to use the site, you agree to this use of cookies and data.
  • In United Kingdom
  • List of Countries
  • For 7 days
  • Water Temperature
  • Satellite Maps
  • Weather Map
  • Weather Widgets
  • user-avatar
    Login

    Hourly Weather Mingachevir

    Today, 15 July, Monday

    Time Temperature Precipitation Wind Pressure Humidity
    00:00 +23°C° 0 mm 6 mps 749 mmHg 74%
    01:00 +22°C° 0 mm 5 mps 748 mmHg 75%
    02:00 +22°C° 0 mm 5 mps 748 mmHg 76%
    03:00 +21°C° 0 mm 4 mps 748 mmHg 78%
    04:00 +22°C° 0 mm 4 mps 748 mmHg 77%
    05:00 +22°C° 0 mm 4 mps 748 mmHg 75%
    06:00 +22°C° 0 mm 4 mps 748 mmHg 74%
    07:00 +25°C° 0 mm 4 mps 747 mmHg 69%
    08:00 +26°C° 0 mm 4 mps 747 mmHg 64%
    09:00 +27°C° 0 mm 4 mps 747 mmHg 59%
    10:00 +28°C° 0 mm 4 mps 747 mmHg 57%
    11:00 +29°C° 0 mm 4 mps 747 mmHg 54%
    12:00 +30°C° 0 mm 4 mps 746 mmHg 52%
    13:00 +30°C° 0 mm 4 mps 746 mmHg 50%
    14:00 +31°C° 0 mm 3 mps 745 mmHg 48%
    15:00 +31°C° 0 mm 3 mps 745 mmHg 49%
    16:00 +31°C° 0 mm 2 mps 744 mmHg 49%
    17:00 +31°C° 0 mm 2 mps 744 mmHg 49%
    18:00 +31°C° 0 mm 2 mps 744 mmHg 49%
    19:00 +29°C° 0 mm 2 mps 744 mmHg 53%
    20:00 +28°C° 0 mm 2 mps 744 mmHg 57%
    21:00 +27°C° 0 mm 2 mps 744 mmHg 62%
    22:00 +26°C° 0 mm 1 mps 744 mmHg 64%
    23:00 +26°C° 0 mm 1 mps 744 mmHg 66%

    Tomorrow, 16 July, Tuesday

    Time Temperature Precipitation Wind Pressure Humidity
    00:00 +26°C° 0 mm 1 mps 744 mmHg 68%
    01:00 +25°C° 0 mm 1 mps 744 mmHg 70%
    02:00 +25°C° 0 mm 1 mps 745 mmHg 71%
    03:00 +25°C° 0 mm 1 mps 745 mmHg 72%
    04:00 +25°C° 0 mm 2 mps 745 mmHg 68%
    05:00 +26°C° 0 mm 2 mps 745 mmHg 64%
    06:00 +27°C° 0 mm 3 mps 745 mmHg 59%
    07:00 +28°C° 0 mm 4 mps 745 mmHg 53%
    08:00 +30°C° 0 mm 4 mps 745 mmHg 46%
    09:00 +33°C° 0 mm 5 mps 745 mmHg 40%
    10:00 +34°C° 0 mm 5 mps 744 mmHg 37%
    11:00 +36°C° 0 mm 5 mps 744 mmHg 34%
    12:00 +37°C° 0 mm 4 mps 744 mmHg 31%
    13:00 +38°C° 0 mm 4 mps 743 mmHg 29%
    14:00 +40°C° 0 mm 4 mps 743 mmHg 27%
    15:00 +40°C° 0 mm 4 mps 743 mmHg 24%
    16:00 +40°C° 0 mm 4 mps 743 mmHg 24%
    17:00 +39°C° 0 mm 3 mps 743 mmHg 24%
    18:00 +38°C° 0 mm 3 mps 743 mmHg 24%
    19:00 +36°C° 0 mm 3 mps 744 mmHg 30%
    20:00 +34°C° 0 mm 3 mps 744 mmHg 36%
    21:00 +32°C° 0 mm 4 mps 745 mmHg 42%
    22:00 +30°C° 0 mm 3 mps 745 mmHg 49%
    23:00 +29°C° 0 mm 2 mps 745 mmHg 56%

    Day after tomorrow, 17 July, Wednesday

    Time Temperature Precipitation Wind Pressure Humidity
    00:00 +27°C° 0 mm 1 mps 745 mmHg 63%
    01:00 +27°C° 0 mm 1 mps 745 mmHg 66%
    02:00 +26°C° 0 mm 1 mps 745 mmHg 68%
    03:00 +26°C° 0 mm 1 mps 745 mmHg 70%
    04:00 +26°C° 0 mm 1 mps 746 mmHg 66%
    05:00 +27°C° 0 mm 1 mps 746 mmHg 63%
    06:00 +27°C° 0 mm 1 mps 746 mmHg 60%
    07:00 +29°C° 0 mm 2 mps 746 mmHg 55%
    08:00 +30°C° 0 mm 3 mps 746 mmHg 51%
    09:00 +33°C° 0 mm 4 mps 746 mmHg 46%
    10:00 +34°C° 0 mm 4 mps 746 mmHg 42%
    11:00 +36°C° 0 mm 5 mps 746 mmHg 39%
    12:00 +37°C° 0 mm 5 mps 745 mmHg 35%
    13:00 +39°C° 0 mm 5 mps 745 mmHg 34%
    14:00 +39°C° 0 mm 6 mps 745 mmHg 32%
    15:00 +40°C° 0 mm 6 mps 745 mmHg 31%
    16:00 +39°C° 0 mm 7 mps 745 mmHg 33%
    17:00 +38°C° 0 mm 7 mps 745 mmHg 36%
    18:00 +37°C° 0 mm 8 mps 745 mmHg 38%
    19:00 +34°C° 0 mm 7 mps 745 mmHg 40%
    20:00 +33°C° 0 mm 7 mps 745 mmHg 44%
    21:00 +30°C° 0 mm 6 mps 746 mmHg 48%
    22:00 +29°C° 0 mm 6 mps 746 mmHg 51%
    23:00 +28°C° 0 mm 5 mps 746 mmHg 53%

    18 July, Thursday

    Time Temperature Precipitation Wind Pressure Humidity
    00:00 +27°C° 0 mm 5 mps 746 mmHg 56%
    01:00 +27°C° 0 mm 4 mps 746 mmHg 58%
    02:00 +26°C° 0 mm 4 mps 746 mmHg 61%
    03:00 +26°C° 0 mm 3 mps 746 mmHg 64%
    04:00 +26°C° 0 mm 3 mps 746 mmHg 62%
    05:00 +26°C° 0 mm 2 mps 746 mmHg 60%
    06:00 +27°C° 0 mm 1 mps 746 mmHg 58%
    07:00 +28°C° 0 mm 2 mps 746 mmHg 53%
    08:00 +30°C° 0 mm 3 mps 746 mmHg 47%
    09:00 +33°C° 0 mm 3 mps 746 mmHg 41%
    10:00 +34°C° 0 mm 4 mps 746 mmHg 38%
    11:00 +36°C° 0 mm 4 mps 745 mmHg 35%
    12:00 +37°C° 0 mm 5 mps 745 mmHg 32%
    13:00 +38°C° 0 mm 4 mps 745 mmHg 31%
    14:00 +40°C° 0 mm 4 mps 744 mmHg 30%
    15:00 +40°C° 0 mm 4 mps 744 mmHg 28%
    16:00 +40°C° 0 mm 4 mps 744 mmHg 29%
    17:00 +39°C° 0 mm 3 mps 744 mmHg 30%
    18:00 +38°C° 0 mm 3 mps 744 mmHg 32%
    19:00 +36°C° 0 mm 4 mps 745 mmHg 35%
    20:00 +34°C° 0 mm 4 mps 745 mmHg 38%
    21:00 +32°C° 0 mm 4 mps 746 mmHg 41%
    22:00 +32°C° 0 mm 4 mps 746 mmHg 42%
    23:00 +30°C° 0 mm 3 mps 746 mmHg 44%

    19 July, Friday

    Time Temperature Precipitation Wind Pressure Humidity
    00:00 +29°C° 0 mm 3 mps 746 mmHg 46%
    01:00 +28°C° 0 mm 2 mps 747 mmHg 48%
    02:00 +27°C° 0 mm 2 mps 747 mmHg 50%
    03:00 +27°C° 0 mm 1 mps 747 mmHg 53%
    04:00 +27°C° 0 mm 1 mps 747 mmHg 53%
    05:00 +28°C° 0 mm 2 mps 747 mmHg 54%
    06:00 +28°C° 0 mm 2 mps 748 mmHg 55%
    07:00 +30°C° 0 mm 2 mps 748 mmHg 50%
    08:00 +32°C° 0 mm 2 mps 748 mmHg 45%
    09:00 +34°C° 0 mm 2 mps 748 mmHg 40%
    10:00 +36°C° 0 mm 2 mps 748 mmHg 37%
    11:00 +37°C° 0 mm 2 mps 748 mmHg 33%
    12:00 +39°C° 0 mm 3 mps 747 mmHg 29%
    13:00 +39°C° 0 mm 3 mps 747 mmHg 28%
    14:00 +41°C° 0 mm 4 mps 747 mmHg 27%
    15:00 +41°C° 0 mm 5 mps 747 mmHg 27%
    16:00 +41°C° 0 mm 4 mps 747 mmHg 27%
    17:00 +41°C° 0 mm 4 mps 747 mmHg 28%
    18:00 +40°C° 0 mm 4 mps 747 mmHg 29%
    19:00 +37°C° 0 mm 4 mps 748 mmHg 33%
    20:00 +36°C° 0 mm 5 mps 749 mmHg 36%
    21:00 +34°C° 0 mm 6 mps 750 mmHg 40%
    22:00 +33°C° 0 mm 5 mps 750 mmHg 42%
    23:00 +32°C° 0 mm 5 mps 750 mmHg 43%

    20 July, Saturday

    Time Temperature Precipitation Wind Pressure Humidity
    00:00 +30°C° 0 mm 5 mps 750 mmHg 45%
    01:00 +29°C° 0 mm 4 mps 750 mmHg 47%
    02:00 +29°C° 0 mm 3 mps 750 mmHg 49%
    03:00 +28°C° 0 mm 2 mps 751 mmHg 51%
    04:00 +29°C° 0 mm 2 mps 751 mmHg 50%
    05:00 +29°C° 0 mm 1 mps 751 mmHg 49%
    06:00 +29°C° 0 mm 1 mps 751 mmHg 49%
    07:00 +31°C° 0 mm 2 mps 751 mmHg 44%
    08:00 +34°C° 0 mm 2 mps 751 mmHg 39%
    09:00 +36°C° 0 mm 3 mps 751 mmHg 34%
    10:00 +37°C° 0 mm 4 mps 751 mmHg 31%
    11:00 +40°C° 0 mm 5 mps 751 mmHg 29%
    12:00 +41°C° 0 mm 6 mps 751 mmHg 26%
    13:00 +42°C° 0 mm 6 mps 751 mmHg 25%
    14:00 +42°C° 0 mm 6 mps 750 mmHg 25%
    15:00 +44°C° 0 mm 6 mps 750 mmHg 24%
    16:00 +43°C° 0 mm 7 mps 750 mmHg 25%
    17:00 +41°C° 0 mm 7 mps 750 mmHg 26%
    18:00 +40°C° 0 mm 8 mps 750 mmHg 27%
    19:00 +38°C° 0 mm 8 mps 751 mmHg 30%
    20:00 +35°C° 0 mm 8 mps 752 mmHg 33%
    21:00 +34°C° 0 mm 7 mps 752 mmHg 36%
    22:00 +33°C° 0 mm 6 mps 753 mmHg 37%
    23:00 +32°C° 0 mm 6 mps 753 mmHg 38%
    Show more